Hermiston, OR

6:49 PM PST on November 21, 2017 (GMT -0800)
Hermiston Municipal

Weather History for KHRI - April, 2014

Change the Weather History Date:

Friday, April 18, 2014

  Actual Average Record
Temperature  
Mean Temperature 52 °F 52 °F  
Max Temperature 63 °F 67 °F 89 °F (1910)
Min Temperature 37 °F 37 °F 21 °F (1964)
Degree Days  
Heating Degree Days 14    
Growing Degree Days 2 (Base 50)    
Moisture  
Dew Point 34 °F    
Average Humidity 55    
Maximum Humidity 83    
Minimum Humidity 29    
Precipitation  
Precipitation 0.00 in 0.04 in 0.22 in (1963)
Month to date precipitation 0.58  
Year to date precipitation 3.97  
Sea Level Pressure  
Sea Level Pressure 30.00 in    
Wind  
Wind Speed 17 mph (SW)    
Max Wind Speed 23 mph    
Max Gust Speed 33 mph    
Visibility 10 miles    
Events      
T = Trace of Precipitation, MM = Missing Value Source: NWS Daily Summary

Daily Weather History Graph

Daily Weather History Graph

Search for Another Location

Airport or City:

Trip Planner

Search our weather history database for the weather conditions in past years. The results will help you decide how hot, cold, wet, or windy it might be!

Date:

Astronomy

Apr. 18, 2014 Rise Set
Actual Time 6:05 AM PDT 7:47 PM PDT
Civil Twilight 5:34 AM PDT 8:19 PM PDT
Nautical Twilight 4:55 AM PDT 8:57 PM PDT
Astronomical Twilight 4:14 AM PDT 9:39 PM PDT
Moon 11:45 PM PDT (4/18) 8:25 AM PDT (4/18)
Length of Visible Light 14h 45m
Length of Day
13h 42m
Waning Gibbous, 86% of the Moon is Illuminated
Apr 18
Waning Gibbous
Apr 22
Last Quarter
Apr 28
New
May 6
First Quarter
May 14
Full

Hourly Weather History & Observations

Time (PDT) Temp. Windchill Dew Point Humidity Pressure Visibility Wind Dir Wind Speed Gust Speed Precip Events Conditions
12:53 AM 50.0 °F - 39.9 °F 68% 29.88 in 10.0 mi WSW 20.7 mph 33.4 mph N/A   Clear
1:53 AM 48.0 °F - 37.9 °F 68% 29.89 in 10.0 mi SW 21.9 mph 31.1 mph N/A   Clear
2:53 AM 46.0 °F 40.6 °F 37.9 °F 73% 29.94 in 10.0 mi West 11.5 mph - N/A   Clear
3:53 AM 45.0 °F 38.2 °F 37.0 °F 74% 29.98 in 10.0 mi WSW 15.0 mph 21.9 mph N/A   Clear
5:53 AM 43.0 °F 35.4 °F 35.1 °F 74% 30.01 in 10.0 mi SW 16.1 mph 26.5 mph N/A   Clear
6:53 AM 43.0 °F 35.4 °F 34.0 °F 71% 30.03 in 10.0 mi SSW 16.1 mph - N/A   Clear
7:53 AM 46.9 °F - 34.0 °F 61% 30.04 in 10.0 mi SW 18.4 mph - N/A   Clear
8:53 AM 50.0 °F - 34.0 °F 54% 30.06 in 10.0 mi WSW 18.4 mph 27.6 mph N/A   Clear
9:53 AM 52.0 °F - 34.0 °F 50% 30.06 in 10.0 mi WSW 23.0 mph 31.1 mph N/A   Clear
10:53 AM 55.0 °F - 33.1 °F 43% 30.07 in 10.0 mi WSW 21.9 mph 32.2 mph N/A   Clear
11:53 AM 57.9 °F - 34.0 °F 41% 30.07 in 10.0 mi West 20.7 mph 26.5 mph N/A   Clear
12:53 PM 59.0 °F - 30.0 °F 33% 30.06 in 10.0 mi West 18.4 mph 25.3 mph N/A   Clear
1:53 PM 61.0 °F - 33.1 °F 35% 30.04 in 10.0 mi West 16.1 mph 32.2 mph N/A   Clear
2:53 PM 60.1 °F - 30.0 °F 32% 30.04 in 10.0 mi West 20.7 mph 24.2 mph N/A   Clear
3:53 PM 62.1 °F - 30.9 °F 31% 30.02 in 10.0 mi West 15.0 mph - N/A   Clear
4:53 PM 61.0 °F - 28.9 °F 30% 30.01 in 10.0 mi WSW 10.4 mph - N/A   Clear
5:53 PM 61.0 °F - 28.0 °F 29% 29.99 in 10.0 mi West 9.2 mph - N/A   Clear
6:53 PM 59.0 °F - 30.0 °F 33% 29.98 in 10.0 mi WSW 6.9 mph - N/A   Clear
8:53 PM 42.1 °F 38.4 °F 33.1 °F 70% 29.97 in 10.0 mi SSE 5.8 mph - N/A   Clear
9:53 PM 43.0 °F 40.3 °F 36.0 °F 76% 29.97 in 10.0 mi SSE 4.6 mph - N/A   Clear
10:53 PM 41.0 °F 37.1 °F 35.1 °F 79% 29.96 in 10.0 mi SE 5.8 mph - N/A   Clear
11:53 PM 37.9 °F 32.7 °F 33.1 °F 83% 29.94 in 10.0 mi ESE 6.9 mph - N/A   Clear